Miscellaneous Local Product
Issued by NWS Hastings, NE

Home | Current Version | Previous Version | Text Only | Print | Product List | Glossary Off
Versions: 1 2 3 4 5 6 7 8 9 10 11 12 13 14 15 16 17 18 19 20 21 22 23 24 25 26 27 28 29 30 31 32 33 34 35 36 37 38 39 40 41 42 43 44 45 46 47 48 49 50

338
AXUS43 KGID 250602
MISGRI

GID CWA HOURLY WEATHER ROUNDUP
NATIONAL WEATHER SERVICE HASTINGS NE
100 AM CDT MON JUL 25 2016

NOTE: "FAIR" INDICATES FEW OR NO CLOUDS BELOW 12,000 FEET WITH NO
SIGNIFICANT WEATHER AND/OR OBSTRUCTIONS TO VISIBILITY.

...SOUTH CENTRAL NEBRASKA...

CITY           SKY/WX    TMP DP  RH WIND       PRES   REMARKS
GRAND ISLAND   MOCLDY    68  63  84 NE6       30.12S
HASTINGS       CLOUDY    68  63  84 NE6       30.11F
KEARNEY        MOCLDY    66  61  82 NE7       30.12F
ORD            PTCLDY    66  60  81 CALM      30.11S
YORK           CLOUDY    66  64  94 CALM      30.11S
AURORA         MOCLDY    67  65  94 NE5       30.11S
LEXINGTON      CLOUDY    71  63  76 E3        30.13S
HOLDREGE       CLOUDY    68  64  88 NE6       30.11F
HEBRON         MOCLDY    68  63  86 CALM      30.07F

...NEBRASKA PANHANDLE...

CITY           SKY/WX    TMP DP  RH WIND       PRES   REMARKS
CHADRON        CLEAR     73  54  51 S18G24    30.13S
ALLIANCE       CLEAR     60  56  86 S8        30.19R
SCOTTSBLUFF    CLEAR     62  55  77 VRB3      30.20R
SIDNEY         CLEAR     55  52  89 W6        30.23S

...WESTERN AND NORTH CENTRAL NEBRASKA...

CITY           SKY/WX    TMP DP  RH WIND       PRES   REMARKS
VALENTINE      CLEAR     67  56  67 SE3       30.15R
AINSWORTH      PTCLDY    64  58  81 S5        30.15S
ONEILL         MOCLDY    67  59  74 CALM      30.14R
BROKEN BOW     CLOUDY    63  62  97 CALM      30.14R
IMPERIAL       CLOUDY    68  58  70 NE7       30.16R
NORTH PLATTE   PTCLDY    67  62  84 E5        30.16R
MCCOOK         CLOUDY    74  58  57 NE38G49   30.09F

...EASTERN NEBRASKA...

CITY           SKY/WX    TMP DP  RH WIND       PRES   REMARKS
NORFOLK        PTCLDY    62  59  90 CALM      30.10S
SO SIOUX CITY  PTCLDY    69  64  84 N7        30.07F
TEKAMAH        MOCLDY    67  64  90 N7        30.07R
COLUMBUS       CLOUDY    66  57  72 CALM      30.11S
ALBION         CLOUDY    62  59  90 CALM      30.12S
OMAHA EPPLEY   CLOUDY    71  66  84 N7        30.06R
OFFUTT AFB     PTCLDY    72  65  80 N6        30.06R
MILLARD        MOCLDY    74  66  77 CALM      30.06S
LINCOLN        MOCLDY    72  65  78 NW3       30.09R
NEBRASKA CITY  CLEAR     69  66  89 N5        30.07R
BEATRICE       PTCLDY    66  64  93 N3        30.07S
FALLS CITY     PTCLDY    70  66  87 CALM      30.03S

...NORTHERN KANSAS...

CITY           SKY/WX    TMP DP  RH WIND       PRES   REMARKS
GOODLAND       CLOUDY    65  63  93 E9        30.16F
HILL CITY      CLOUDY    74  59  59 NE9       30.09F
NORTON         CLEAR     70  54  56 CALM      30.09F
SMITH CENTER   CLEAR     70  63  78 NE7       30.06F
BELOIT         CLEAR     70  63  78 N9        30.03F
HAYS           CLOUDY    72  59  64 NE10      30.02F
RUSSELL        CLOUDY    71  65  81 NE9       30.00F
CONCORDIA      CLOUDY    70  63  78 NE5       30.04F
SALINA         MOCLDY    79  67  66 NE6       30.01F THUNDER
TOPEKA         CLOUDY    78  69  73 E6        29.99F



USA.gov is the U.S. government's official web portal to all federal, state and local government web resources and services.